contact:dominique.lefevre@mio.osupytheas.fr, maurice.libes@osupytheas.fr, didier.mallarino@osupytheas.fr
Project:EMSO http://www.emso-fr.org/EMSO-France
Depth: 2436.0 m
Title:EMSO Ligure Ouest : Data MII capteur AQUADOPP
Date,Latitude,Longitude,X_East,Y_North,Z_Up,Amplitude_X,Amplitude_Y,Amplitude_Z,Batterie,SoundSpeed,Heading,Pitch,Roll,Pressure,TIS,Speed,Direction
, degrees North, degrees East, m.s-1, m.s-1,m.s-1, 1, 1, 1, Volt, m.s-1, degree, degree, degree, dbar, degree_C, m.s-1, degree
2022-02-06T00:04:03,42.805,6.029,-0.038,-0.004,-0.036,102.0,102.0,102.0,13.3,1505.2,326.5,-0.8,1.8,2470.264,13.28,0.038,264.0
2022-02-06T00:07:03,42.805,6.029,-0.062,-0.031,-0.051,101.0,102.0,101.0,13.3,1505.2,325.7,-0.8,1.8,2470.241,13.28,0.069,243.4
2022-02-06T00:10:03,42.805,6.029,-0.06,-0.001,-0.004,101.0,102.0,101.0,13.4,1505.2,323.5,-0.8,1.8,2470.247,13.28,0.06,269.0
2022-02-06T00:13:03,42.805,6.029,-0.059,0.0,-0.033,101.0,102.0,101.0,13.4,1505.2,329.9,-0.8,1.8,2470.247,13.28,0.058,270.0
2022-02-06T00:16:03,42.805,6.029,-0.046,0.006,-0.017,102.0,102.0,100.0,13.4,1505.2,328.7,-0.8,1.8,2470.246,13.28,0.046,277.4
2022-02-06T00:19:03,42.805,6.029,-0.042,-0.001,-0.039,102.0,102.0,102.0,13.3,1505.2,324.3,-0.7,1.8,2470.257,13.28,0.042,268.6
2022-02-06T00:22:03,42.805,6.029,-0.062,-0.037,-0.059,103.0,102.0,102.0,13.3,1505.2,323.5,-0.7,1.8,2470.279,13.28,0.072,239.2
2022-02-06T00:25:03,42.805,6.029,-0.028,0.003,-0.003,103.0,103.0,101.0,13.3,1505.2,328.5,-0.7,1.8,2470.27,13.28,0.028,276.1
2022-02-06T00:28:03,42.805,6.029,-0.03,-0.015,-0.052,102.0,101.0,101.0,13.4,1505.2,331.5,-0.8,1.8,2470.228,13.28,0.033,243.4
2022-02-06T00:31:03,42.805,6.029,-0.051,-0.029,-0.043,101.0,101.0,101.0,13.4,1505.2,324.2,-0.8,1.8,2470.234,13.28,0.058,240.4
2022-02-06T00:34:03,42.805,6.029,-0.052,0.001,-0.034,104.0,102.0,100.0,13.3,1505.2,327.7,-0.7,1.8,2470.269,13.28,0.052,271.1
2022-02-06T00:37:03,42.805,6.029,-0.049,0.002,-0.031,103.0,100.0,101.0,13.4,1505.2,330.8,-0.8,1.8,2470.266,13.28,0.049,272.3
2022-02-06T00:40:03,42.805,6.029,-0.064,-0.023,-0.053,101.0,102.0,101.0,13.4,1505.2,327.7,-0.8,1.8,2470.295,13.28,0.068,250.2
2022-02-06T00:43:03,42.805,6.029,-0.038,-0.003,-0.014,101.0,103.0,101.0,13.3,1505.2,329.6,-0.8,1.8,2470.324,13.28,0.038,265.5
2022-02-06T00:46:03,42.805,6.029,-0.048,-0.004,-0.034,101.0,102.0,101.0,13.4,1505.2,327.3,-0.7,1.8,2470.278,13.28,0.048,265.2
2022-02-06T00:49:03,42.805,6.029,-0.038,-0.029,-0.056,102.0,101.0,101.0,13.4,1505.2,327.0,-0.7,1.8,2470.319,13.28,0.047,232.7
2022-02-06T00:52:03,42.805,6.029,-0.027,-0.012,-0.032,102.0,101.0,101.0,13.4,1505.2,328.8,-0.7,1.8,2470.266,13.28,0.029,246.0
2022-02-06T00:55:03,42.805,6.029,-0.064,0.012,-0.045,102.0,100.0,102.0,13.4,1505.2,328.4,-0.7,1.8,2470.275,13.28,0.065,280.6
2022-02-06T00:58:03,42.805,6.029,-0.038,-0.005,-0.023,101.0,103.0,101.0,13.4,1505.2,330.0,-0.7,1.8,2470.299,13.28,0.038,262.5
2022-02-06T01:04:03,42.805,6.029,-0.077,-0.014,-0.041,102.0,102.0,102.0,13.4,1505.2,325.7,-0.7,1.8,2470.355,13.28,0.078,259.7
2022-02-06T01:07:04,42.805,6.029,-0.046,-0.017,-0.017,103.0,101.0,101.0,13.4,1505.2,331.6,-0.8,1.8,2470.339,13.28,0.049,249.7
2022-02-06T01:10:03,42.805,6.029,-0.025,-0.022,-0.02,103.0,101.0,101.0,13.4,1505.2,329.4,-0.7,1.8,2470.317,13.28,0.033,228.7
2022-02-06T01:13:03,42.805,6.029,-0.053,-0.01,-0.055,103.0,102.0,100.0,13.4,1505.2,329.0,-0.7,1.8,2470.293,13.28,0.053,259.3
2022-02-06T01:16:03,42.805,6.029,-0.053,-0.008,-0.015,101.0,101.0,102.0,13.4,1505.2,327.4,-0.8,1.8,2470.316,13.28,0.053,261.4
2022-02-06T01:19:03,42.805,6.029,-0.065,0.013,-0.024,99.0,102.0,101.0,13.4,1505.2,326.7,-0.8,1.8,2470.363,13.28,0.066,281.3
2022-02-06T01:22:03,42.805,6.029,-0.08,-0.004,-0.075,102.0,101.0,101.0,13.3,1505.2,331.1,-0.8,1.8,2470.321,13.28,0.08,267.1
2022-02-06T01:25:03,42.805,6.029,-0.021,-0.012,-0.029,102.0,102.0,100.0,13.4,1505.2,326.2,-0.8,1.9,2470.318,13.28,0.024,240.3
2022-02-06T01:28:03,42.805,6.029,-0.051,0.023,-0.006,99.0,101.0,101.0,13.4,1505.2,327.0,-0.8,1.8,2470.329,13.28,0.055,294.3
2022-02-06T01:31:03,42.805,6.029,-0.045,0.004,-0.038,100.0,100.0,101.0,13.4,1505.2,329.3,-0.8,1.8,2470.388,13.28,0.045,275.1
2022-02-06T01:34:03,42.805,6.029,-0.053,0.0,-0.032,102.0,102.0,100.0,13.4,1505.2,324.2,-0.7,1.9,2470.4,13.28,0.053,270.0
2022-02-06T01:37:03,42.805,6.029,-0.05,0.002,-0.028,101.0,101.0,102.0,13.4,1505.2,323.3,-0.7,1.8,2470.397,13.28,0.05,272.3
2022-02-06T01:40:03,42.805,6.029,-0.076,-0.01,-0.073,99.0,102.0,101.0,13.4,1505.2,324.1,-0.7,1.8,2470.443,13.28,0.076,262.5
2022-02-06T01:43:03,42.805,6.029,-0.068,0.0,-0.04,101.0,100.0,100.0,13.3,1505.2,326.8,-0.7,1.8,2470.43,13.28,0.067,270.0
2022-02-06T01:46:03,42.805,6.029,-0.048,0.0,-0.043,101.0,102.0,99.0,13.4,1505.2,331.2,-0.8,1.8,2470.464,13.28,0.048,270.0
2022-02-06T01:49:03,42.805,6.029,-0.049,0.0,-0.011,102.0,101.0,101.0,13.3,1505.2,327.1,-0.8,1.8,2470.452,13.28,0.049,270.0
2022-02-06T01:52:03,42.805,6.029,-0.047,0.012,-0.043,101.0,101.0,100.0,13.3,1505.2,329.7,-0.8,1.8,2470.472,13.28,0.048,284.3
2022-02-06T01:55:03,42.805,6.029,-0.076,0.01,-0.046,102.0,101.0,100.0,13.3,1505.2,329.4,-0.8,1.8,2470.489,13.28,0.076,277.5
2022-02-06T01:58:03,42.805,6.029,-0.053,0.021,-0.024,101.0,101.0,101.0,13.4,1505.2,331.8,-0.7,1.8,2470.499,13.28,0.057,291.6
2022-02-06T02:04:03,42.805,6.029,-0.039,0.01,-0.019,101.0,101.0,100.0,13.3,1505.2,328.3,-0.7,1.8,2470.579,13.28,0.04,284.4
2022-02-06T02:07:03,42.805,6.029,-0.058,0.016,-0.005,102.0,101.0,100.0,13.3,1505.2,327.9,-0.7,1.8,2470.543,13.28,0.06,285.4
2022-02-06T02:10:03,42.805,6.029,-0.054,-0.014,-0.054,102.0,102.0,102.0,13.4,1505.2,328.7,-0.7,1.8,2470.562,13.28,0.055,255.5
2022-02-06T02:13:03,42.805,6.029,-0.049,-0.013,-0.03,102.0,101.0,101.0,13.4,1505.2,326.1,-0.7,1.8,2470.56,13.28,0.05,255.1
2022-02-06T02:16:03,42.805,6.029,-0.066,0.002,-0.053,102.0,101.0,102.0,13.4,1505.2,328.6,-0.8,1.8,2470.531,13.28,0.066,271.7
2022-02-06T02:19:03,42.805,6.029,-0.065,0.01,0.003,102.0,101.0,101.0,13.4,1505.2,325.0,-0.8,1.8,2470.532,13.28,0.065,278.7
2022-02-06T02:22:03,42.805,6.029,-0.033,-0.006,-0.049,101.0,101.0,102.0,13.3,1505.2,326.0,-0.7,1.8,2470.603,13.28,0.033,259.7
2022-02-06T02:25:03,42.805,6.029,-0.052,0.013,-0.03,102.0,101.0,101.0,13.4,1505.2,328.5,-0.8,1.8,2470.601,13.28,0.053,284.0
2022-02-06T02:28:03,42.805,6.029,-0.039,-0.017,-0.045,103.0,103.0,101.0,13.4,1505.2,329.1,-0.8,1.8,2470.604,13.28,0.042,246.5
2022-02-06T02:31:03,42.805,6.029,-0.049,-0.009,-0.038,102.0,103.0,100.0,13.4,1505.2,324.0,-0.7,1.8,2470.585,13.28,0.049,259.6
2022-02-06T02:34:03,42.805,6.029,-0.065,-0.003,-0.033,103.0,102.0,101.0,13.3,1505.2,331.3,-0.8,1.8,2470.632,13.28,0.065,267.4
2022-02-06T02:37:03,42.805,6.029,-0.028,-0.02,-0.033,102.0,101.0,101.0,13.3,1505.2,329.0,-0.8,1.8,2470.592,13.28,0.034,234.5
2022-02-06T02:40:03,42.805,6.029,-0.052,0.001,-0.024,102.0,101.0,102.0,13.3,1505.2,328.7,-0.8,1.8,2470.629,13.28,0.052,271.1
2022-02-06T02:43:03,42.805,6.029,-0.04,0.0,-0.037,101.0,101.0,101.0,13.4,1505.2,331.1,-0.7,1.8,2470.593,13.28,0.04,270.0
2022-02-06T02:46:03,42.805,6.029,-0.054,0.01,-0.032,103.0,101.0,101.0,13.4,1505.2,324.4,-0.8,1.8,2470.624,13.28,0.054,280.5
2022-02-06T02:49:03,42.805,6.029,-0.053,-0.007,-0.045,102.0,101.0,101.0,13.4,1505.2,325.6,-0.8,1.8,2470.642,13.28,0.053,262.5
2022-02-06T02:52:03,42.805,6.029,-0.056,0.016,-0.016,102.0,102.0,100.0,13.4,1505.2,326.4,-0.7,1.8,2470.657,13.28,0.058,285.9
2022-02-06T02:55:03,42.805,6.029,-0.044,-0.005,-0.045,101.0,102.0,101.0,13.4,1505.2,327.4,-0.7,1.8,2470.62,13.28,0.044,263.5
2022-02-06T02:58:03,42.805,6.029,-0.062,0.02,-0.008,102.0,101.0,101.0,13.4,1505.2,325.4,-0.8,1.8,2470.633,13.28,0.065,287.9
2022-02-06T03:01:03,42.805,6.029,-0.046,-0.003,-0.067,102.0,100.0,102.0,13.3,1505.2,327.8,-0.8,1.8,2470.603,13.28,0.046,266.3
2022-02-06T03:04:03,42.805,6.029,-0.025,0.0,-0.017,102.0,101.0,101.0,13.4,1505.2,327.8,-0.8,1.8,2470.615,13.28,0.025,270.0
2022-02-06T03:07:03,42.805,6.029,-0.016,-0.03,-0.067,101.0,101.0,100.0,13.3,1505.2,329.1,-0.8,1.8,2470.653,13.28,0.034,208.1
2022-02-06T03:10:03,42.805,6.029,-0.058,0.007,-0.02,102.0,102.0,101.0,13.3,1505.2,324.5,-0.8,1.9,2470.655,13.28,0.058,276.9
2022-02-06T03:13:03,42.805,6.029,-0.063,0.012,-0.059,101.0,101.0,101.0,13.4,1505.2,330.9,-0.7,1.8,2470.669,13.28,0.064,280.8
2022-02-06T03:16:03,42.805,6.029,-0.043,0.016,-0.039,102.0,101.0,101.0,13.3,1505.2,328.2,-0.7,1.8,2470.67,13.28,0.045,290.4
2022-02-06T03:19:03,42.805,6.029,-0.027,0.0,-0.039,102.0,103.0,101.0,13.4,1505.2,323.9,-0.8,1.8,2470.651,13.28,0.026,270.0
2022-02-06T03:22:03,42.805,6.029,-0.055,0.007,-0.01,101.0,102.0,101.0,13.4,1505.2,327.2,-0.8,1.8,2470.666,13.28,0.055,277.3
2022-02-06T03:25:03,42.805,6.029,-0.047,0.019,-0.031,101.0,102.0,102.0,13.3,1505.2,326.5,-0.8,1.8,2470.664,13.28,0.05,292.0
2022-02-06T03:28:03,42.805,6.029,-0.052,-0.014,-0.04,101.0,100.0,101.0,13.3,1505.2,325.4,-0.8,1.8,2470.65,13.28,0.053,254.9
2022-02-06T03:31:03,42.805,6.029,-0.042,0.006,-0.042,102.0,102.0,101.0,13.4,1505.2,327.2,-0.8,1.8,2470.664,13.28,0.042,278.1
2022-02-06T03:34:03,42.805,6.029,-0.052,0.017,-0.022,102.0,101.0,101.0,13.3,1505.2,326.0,-0.8,1.8,2470.701,13.28,0.054,288.1
2022-02-06T03:37:03,42.805,6.029,-0.076,0.015,-0.039,102.0,102.0,101.0,13.4,1505.2,330.7,-0.8,1.8,2470.659,13.28,0.077,281.2
2022-02-06T03:40:03,42.805,6.029,-0.052,0.037,0.003,101.0,100.0,101.0,13.4,1505.2,327.8,-0.8,1.8,2470.661,13.28,0.063,305.4
2022-02-06T03:43:03,42.805,6.029,-0.031,0.01,-0.022,102.0,102.0,101.0,13.4,1505.2,328.0,-0.7,1.8,2470.66,13.28,0.032,287.9
2022-02-06T03:46:03,42.805,6.029,-0.049,0.014,-0.033,103.0,100.0,101.0,13.4,1505.2,331.0,-0.8,1.8,2470.668,13.28,0.05,285.9
2022-02-06T03:49:03,42.805,6.029,-0.034,0.003,-0.026,103.0,102.0,101.0,13.3,1505.2,331.1,-0.8,1.8,2470.683,13.28,0.034,275.0
2022-02-06T03:52:03,42.805,6.029,-0.036,-0.003,-0.033,103.0,101.0,100.0,13.4,1505.2,328.3,-0.8,1.8,2470.653,13.28,0.036,265.2
2022-02-06T03:55:03,42.805,6.029,-0.037,0.018,-0.032,102.0,101.0,101.0,13.4,1505.2,326.4,-0.8,1.8,2470.68,13.28,0.041,295.9
2022-02-06T03:58:03,42.805,6.029,-0.057,-0.006,-0.027,102.0,101.0,102.0,13.4,1505.2,327.0,-0.7,1.8,2470.648,13.28,0.057,264.0
2022-02-06T04:04:03,42.805,6.029,-0.047,0.005,-0.028,103.0,101.0,100.0,13.4,1505.2,324.5,-0.8,1.8,2470.694,13.28,0.047,276.1
2022-02-06T04:07:03,42.805,6.029,-0.043,0.001,-0.037,101.0,101.0,103.0,13.3,1505.2,326.2,-0.7,1.8,2470.67,13.28,0.043,271.3
2022-02-06T04:10:03,42.805,6.029,-0.057,0.004,-0.016,102.0,103.0,102.0,13.4,1505.2,325.5,-0.8,1.8,2470.707,13.28,0.057,274.0
2022-02-06T04:13:03,42.805,6.029,-0.057,0.027,-0.062,103.0,99.0,101.0,13.3,1505.2,328.2,-0.8,1.8,2470.634,13.28,0.063,295.3
2022-02-06T04:16:03,42.805,6.029,-0.037,0.008,-0.023,101.0,101.0,101.0,13.4,1505.2,329.4,-0.8,1.8,2470.669,13.28,0.037,282.2
2022-02-06T04:19:03,42.805,6.029,-0.062,0.022,-0.005,101.0,100.0,102.0,13.4,1505.2,324.7,-0.7,1.8,2470.649,13.28,0.065,289.5
2022-02-06T04:22:03,42.805,6.029,-0.063,0.003,-0.046,102.0,100.0,101.0,13.4,1505.2,329.1,-0.7,1.8,2470.678,13.28,0.063,272.7
2022-02-06T04:25:03,42.805,6.029,-0.053,0.024,-0.027,101.0,101.0,101.0,13.3,1505.2,327.9,-0.7,1.8,2470.639,13.28,0.058,294.4
2022-02-06T04:28:03,42.805,6.029,-0.052,0.0,-0.076,102.0,99.0,101.0,13.3,1505.2,329.4,-0.7,1.8,2470.665,13.28,0.052,270.0
2022-02-06T04:31:03,42.805,6.029,-0.043,-0.009,-0.039,101.0,102.0,101.0,13.3,1505.2,326.9,-0.8,1.8,2470.669,13.28,0.043,258.2
2022-02-06T04:34:03,42.805,6.029,-0.06,0.0,-0.065,99.0,103.0,100.0,13.3,1505.2,330.0,-0.7,1.8,2470.674,13.28,0.06,270.0
2022-02-06T04:37:03,42.805,6.029,-0.036,0.024,-0.01,102.0,101.0,100.0,13.4,1505.2,325.4,-0.8,1.8,2470.673,13.28,0.043,303.7
2022-02-06T04:40:03,42.805,6.029,-0.024,0.011,-0.038,102.0,100.0,101.0,13.3,1505.2,329.8,-0.8,1.9,2470.655,13.28,0.026,294.6
2022-02-06T04:43:03,42.805,6.029,-0.024,0.007,0.001,101.0,101.0,100.0,13.4,1505.2,328.1,-0.7,1.8,2470.672,13.28,0.025,286.3
2022-02-06T04:46:03,42.805,6.029,-0.041,0.002,-0.032,102.0,102.0,100.0,13.4,1505.2,325.3,-0.7,1.8,2470.651,13.28,0.041,272.8
2022-02-06T04:49:03,42.805,6.029,-0.032,0.019,-0.039,102.0,100.0,100.0,13.4,1505.2,324.4,-0.8,1.8,2470.648,13.28,0.037,300.7
2022-02-06T04:52:03,42.805,6.029,-0.043,0.035,-0.025,101.0,100.0,101.0,13.4,1505.2,331.2,-0.8,1.8,2470.686,13.28,0.055,309.1
2022-02-06T04:55:03,42.805,6.029,-0.059,-0.001,-0.039,102.0,102.0,100.0,13.4,1505.2,323.4,-0.8,1.8,2470.644,13.28,0.059,269.0
2022-02-06T04:58:03,42.805,6.029,-0.036,0.028,0.014,101.0,102.0,100.0,13.3,1505.2,330.7,-0.7,1.8,2470.666,13.28,0.045,307.9
2022-02-06T05:04:03,42.805,6.029,-0.047,0.009,-0.032,103.0,101.0,100.0,13.3,1505.2,328.2,-0.8,1.8,2470.718,13.28,0.047,280.8
2022-02-06T05:07:03,42.805,6.029,-0.024,0.017,-0.014,100.0,101.0,101.0,13.3,1505.2,331.8,-0.8,1.8,2470.7,13.28,0.029,305.3
2022-02-06T05:10:03,42.805,6.029,-0.037,0.017,-0.01,101.0,101.0,101.0,13.3,1505.2,328.1,-0.8,1.8,2470.667,13.28,0.04,294.7
2022-02-06T05:13:03,42.805,6.029,-0.035,0.0,-0.044,101.0,100.0,100.0,13.4,1505.2,322.8,-0.8,1.8,2470.66,13.28,0.035,270.0
2022-02-06T05:16:03,42.805,6.029,-0.046,0.008,-0.017,102.0,103.0,101.0,13.3,1505.2,327.2,-0.8,1.8,2470.63,13.28,0.046,279.9
2022-02-06T05:19:03,42.805,6.029,-0.042,0.019,-0.05,101.0,101.0,101.0,13.4,1505.2,331.4,-0.8,1.8,2470.664,13.28,0.046,294.3
2022-02-06T05:22:03,42.805,6.029,-0.047,0.01,-0.043,101.0,100.0,101.0,13.3,1505.2,328.1,-0.8,1.8,2470.68,13.28,0.048,282.0
2022-02-06T05:25:03,42.805,6.029,-0.042,0.011,-0.012,102.0,100.0,101.0,13.4,1505.2,328.5,-0.8,1.8,2470.663,13.28,0.043,284.7
2022-02-06T05:28:03,42.805,6.029,-0.034,0.007,-0.013,102.0,101.0,102.0,13.3,1505.2,326.8,-0.7,1.8,2470.646,13.28,0.034,281.6
2022-02-06T05:31:03,42.805,6.029,-0.044,0.033,-0.009,103.0,101.0,101.0,13.4,1505.2,324.0,-0.8,1.8,2470.64,13.29,0.055,306.9
2022-02-06T05:34:03,42.805,6.029,-0.029,0.009,-0.029,103.0,101.0,101.0,13.4,1505.2,323.6,-0.7,1.8,2470.606,13.28,0.03,287.2
2022-02-06T05:37:03,42.805,6.029,-0.032,0.006,-0.025,101.0,101.0,100.0,13.4,1505.2,326.5,-0.8,1.8,2470.644,13.29,0.032,280.6
2022-02-06T05:40:03,42.805,6.029,-0.028,0.001,0.01,101.0,101.0,101.0,13.3,1505.2,328.4,-0.7,1.8,2470.693,13.29,0.028,272.0
2022-02-06T05:43:03,42.805,6.029,-0.043,0.008,-0.027,102.0,101.0,101.0,13.3,1505.2,329.9,-0.8,1.8,2470.637,13.29,0.043,280.5
2022-02-06T05:46:03,42.805,6.029,-0.038,0.018,-0.014,101.0,100.0,100.0,13.3,1505.2,327.9,-0.7,1.8,2470.634,13.29,0.042,295.3
2022-02-06T05:49:03,42.805,6.029,-0.027,-0.004,-0.004,103.0,100.0,99.0,13.4,1505.2,324.4,-0.8,1.8,2470.612,13.29,0.027,261.6
2022-02-06T05:52:03,42.805,6.029,-0.059,0.013,-0.024,101.0,101.0,100.0,13.4,1505.2,326.0,-0.8,1.8,2470.61,13.29,0.06,282.4
2022-02-06T05:55:03,42.805,6.029,-0.036,0.017,-0.037,103.0,101.0,100.0,13.4,1505.2,326.7,-0.8,1.8,2470.659,13.28,0.039,295.3
2022-02-06T05:58:03,42.805,6.029,-0.038,0.007,-0.027,102.0,100.0,102.0,13.4,1505.2,326.6,-0.7,1.8,2470.643,13.29,0.038,280.4
2022-02-06T06:04:03,42.805,6.029,-0.045,0.02,-0.042,101.0,100.0,102.0,13.3,1505.2,329.6,-0.8,1.8,2470.69,13.28,0.049,294.0
2022-02-06T06:07:03,42.805,6.029,-0.036,0.002,-0.016,101.0,100.0,102.0,13.3,1505.2,327.9,-0.8,1.8,2470.632,13.28,0.036,273.2
2022-02-06T06:10:03,42.805,6.029,-0.036,0.017,-0.058,100.0,103.0,101.0,13.4,1505.2,329.2,-0.7,1.8,2470.659,13.28,0.039,295.3
2022-02-06T06:13:03,42.805,6.029,-0.034,0.002,-0.042,100.0,100.0,101.0,13.3,1505.2,324.7,-0.7,1.9,2470.656,13.28,0.034,273.4
2022-02-06T06:16:03,42.805,6.029,-0.024,0.003,-0.04,100.0,99.0,101.0,13.4,1505.2,324.5,-0.8,1.8,2470.654,13.28,0.024,277.1
2022-02-06T06:19:03,42.805,6.029,-0.044,0.004,-0.029,100.0,101.0,101.0,13.3,1505.2,324.6,-0.7,1.8,2470.659,13.28,0.044,275.2
2022-02-06T06:22:03,42.805,6.029,-0.03,0.007,-0.045,101.0,103.0,100.0,13.4,1505.2,325.1,-0.7,1.8,2470.688,13.28,0.03,283.1
2022-02-06T06:25:03,42.805,6.029,-0.039,0.0,-0.016,102.0,101.0,100.0,13.4,1505.2,327.2,-0.7,1.8,2470.667,13.28,0.039,270.0
2022-02-06T06:28:03,42.805,6.029,-0.038,0.006,-0.027,101.0,102.0,101.0,13.4,1505.2,326.7,-0.7,1.9,2470.686,13.28,0.038,279.0
2022-02-06T06:31:03,42.805,6.029,-0.036,0.013,-0.049,102.0,100.0,100.0,13.4,1505.2,328.4,-0.7,1.8,2470.674,13.28,0.038,289.9
2022-02-06T06:34:03,42.805,6.029,-0.039,0.026,-0.015,101.0,100.0,101.0,13.3,1505.2,326.9,-0.8,1.8,2470.692,13.28,0.046,303.7
2022-02-06T06:37:03,42.805,6.029,-0.037,-0.033,-0.063,102.0,103.0,99.0,13.4,1505.2,324.9,-0.8,1.9,2470.665,13.29,0.049,228.3
2022-02-06T06:40:03,42.805,6.029,-0.015,0.014,-0.021,102.0,100.0,101.0,13.4,1505.2,325.5,-0.8,1.8,2470.664,13.29,0.02,313.0
2022-02-06T06:43:03,42.805,6.029,-0.029,0.001,-0.039,101.0,100.0,101.0,13.4,1505.2,330.4,-0.8,1.8,2470.697,13.28,0.029,272.0
2022-02-06T06:46:03,42.805,6.029,-0.029,0.003,-0.02,102.0,102.0,100.0,13.4,1505.2,328.8,-0.8,1.8,2470.679,13.29,0.029,275.9
2022-02-06T06:49:03,42.805,6.029,-0.044,0.01,-0.031,101.0,103.0,102.0,13.4,1505.2,328.3,-0.7,1.8,2470.666,13.29,0.045,282.8
2022-02-06T06:52:03,42.805,6.029,-0.028,0.009,-0.023,101.0,102.0,101.0,13.4,1505.2,325.8,-0.7,1.8,2470.668,13.29,0.029,287.8
2022-02-06T06:55:03,42.805,6.029,-0.025,0.012,-0.005,101.0,100.0,101.0,13.4,1505.2,323.8,-0.8,1.8,2470.692,13.29,0.027,295.6
2022-02-06T06:58:03,42.805,6.029,-0.032,0.004,-0.036,100.0,104.0,100.0,13.4,1505.2,325.8,-0.8,1.8,2470.712,13.29,0.032,277.1
2022-02-06T07:04:03,42.805,6.029,-0.052,0.026,-0.027,101.0,101.0,101.0,13.3,1505.2,330.5,-0.8,1.8,2470.766,13.28,0.058,296.6
2022-02-06T07:07:03,42.805,6.029,-0.062,0.019,0.006,101.0,102.0,102.0,13.3,1505.2,326.7,-0.7,1.8,2470.707,13.28,0.064,287.0
2022-02-06T07:10:03,42.805,6.029,-0.011,0.011,-0.012,101.0,101.0,101.0,13.4,1505.2,323.3,-0.8,1.8,2470.667,13.28,0.015,315.0
2022-02-06T07:13:03,42.805,6.029,-0.044,0.015,-0.026,100.0,102.0,102.0,13.3,1505.2,326.4,-0.7,1.8,2470.684,13.28,0.046,288.8
2022-02-06T07:16:03,42.805,6.029,-0.018,0.0,-0.03,101.0,102.0,101.0,13.4,1505.2,328.5,-0.7,1.8,2470.712,13.28,0.018,270.0
2022-02-06T07:19:03,42.805,6.029,-0.04,0.018,-0.037,100.0,101.0,100.0,13.4,1505.2,325.0,-0.8,1.8,2470.687,13.28,0.043,294.2
2022-02-06T07:22:03,42.805,6.029,-0.034,0.013,-0.038,101.0,101.0,100.0,13.4,1505.2,329.4,-0.7,1.9,2470.7,13.29,0.036,290.9
2022-02-06T07:25:03,42.805,6.029,-0.017,0.003,-0.012,101.0,101.0,100.0,13.4,1505.2,326.0,-0.8,1.8,2470.678,13.29,0.017,280.0
2022-02-06T07:28:03,42.805,6.029,-0.045,0.001,-0.065,102.0,100.0,100.0,13.3,1505.2,328.5,-0.7,1.8,2470.696,13.29,0.045,271.3
2022-02-06T07:31:03,42.805,6.029,-0.021,0.022,0.009,102.0,100.0,101.0,13.4,1505.2,323.4,-0.8,1.8,2470.696,13.29,0.03,316.3
2022-02-06T07:34:03,42.805,6.029,-0.036,0.011,-0.008,100.0,101.0,101.0,13.4,1505.2,332.1,-0.7,1.8,2470.692,13.29,0.037,287.0
2022-02-06T07:37:03,42.805,6.029,-0.023,-0.01,-0.065,101.0,99.0,101.0,13.4,1505.2,325.7,-0.7,1.8,2470.706,13.29,0.025,246.5
2022-02-06T07:40:03,42.805,6.029,-0.055,0.02,0.002,101.0,100.0,100.0,13.4,1505.2,324.7,-0.7,1.8,2470.735,13.29,0.058,290.0
2022-02-06T07:43:03,42.805,6.029,-0.044,0.01,-0.014,102.0,101.0,100.0,13.3,1505.2,323.6,-0.7,1.8,2470.703,13.29,0.045,282.8
2022-02-06T07:46:03,42.805,6.029,-0.024,0.02,-0.024,101.0,102.0,100.0,13.4,1505.2,329.2,-0.8,1.8,2470.75,13.29,0.031,309.8
2022-02-06T07:49:03,42.805,6.029,-0.048,-0.006,-0.013,100.0,102.0,100.0,13.4,1505.2,325.3,-0.7,1.8,2470.722,13.29,0.048,262.9
2022-02-06T07:52:03,42.805,6.029,-0.038,-0.003,-0.023,101.0,101.0,101.0,13.4,1505.2,324.9,-0.8,1.8,2470.702,13.29,0.038,265.5
2022-02-06T07:55:03,42.805,6.029,-0.054,0.008,-0.046,101.0,103.0,99.0,13.4,1505.2,331.6,-0.7,1.8,2470.728,13.29,0.054,278.4
2022-02-06T07:58:03,42.805,6.029,-0.036,-0.001,-0.01,102.0,102.0,101.0,13.4,1505.2,329.4,-0.8,1.8,2470.684,13.29,0.036,268.4
2022-02-06T08:04:03,42.805,6.029,-0.042,0.028,0.004,101.0,100.0,102.0,13.4,1505.2,328.7,-0.8,1.8,2470.745,13.28,0.05,303.7
2022-02-06T08:07:03,42.805,6.029,-0.012,-0.014,-0.018,102.0,102.0,100.0,13.4,1505.2,329.6,-0.8,1.8,2470.668,13.28,0.018,220.6
2022-02-06T08:10:03,42.805,6.029,-0.027,0.006,-0.02,102.0,100.0,101.0,13.3,1505.2,328.7,-0.7,1.8,2470.745,13.28,0.027,282.5
2022-02-06T08:13:03,42.805,6.029,-0.026,-0.01,-0.03,102.0,101.0,102.0,13.4,1505.2,329.9,-0.8,1.8,2470.677,13.28,0.027,249.0
2022-02-06T08:16:03,42.805,6.029,-0.037,0.005,-0.006,102.0,99.0,102.0,13.4,1505.2,329.0,-0.7,1.8,2470.646,13.28,0.037,277.7
2022-02-06T08:19:03,42.805,6.029,-0.032,-0.008,-0.04,101.0,101.0,100.0,13.4,1505.2,329.4,-0.8,1.8,2470.669,13.28,0.032,256.0
2022-02-06T08:22:03,42.805,6.029,-0.026,0.012,-0.038,101.0,101.0,100.0,13.4,1505.2,329.5,-0.7,1.8,2470.651,13.28,0.028,294.8
2022-02-06T08:25:03,42.805,6.029,-0.032,0.017,-0.021,101.0,100.0,103.0,13.4,1505.2,326.1,-0.8,1.8,2470.647,13.28,0.036,298.0
2022-02-06T08:28:03,42.805,6.029,-0.044,0.008,-0.017,101.0,100.0,102.0,13.4,1505.2,327.8,-0.8,1.8,2471.305,13.29,0.044,280.3
2022-02-06T08:31:03,42.805,6.029,-0.047,0.013,-0.019,101.0,99.0,102.0,13.3,1505.2,327.0,-0.7,1.8,2472.45,13.29,0.048,285.5
2022-02-06T08:34:03,42.805,6.029,-0.044,0.008,0.011,101.0,101.0,100.0,13.4,1505.2,325.0,-0.7,1.8,2472.84,13.29,0.044,280.3
2022-02-06T08:37:03,42.805,6.029,-0.039,0.017,-0.016,99.0,101.0,100.0,13.4,1505.2,325.3,-0.8,1.8,2472.98,13.29,0.042,293.5
2022-02-06T08:40:03,42.805,6.029,-0.04,0.028,-0.026,100.0,99.0,100.0,13.4,1505.2,331.6,-0.7,1.8,2472.901,13.29,0.048,305.0
2022-02-06T08:43:03,42.805,6.029,-0.028,0.005,0.002,100.0,100.0,102.0,13.3,1505.2,330.6,-0.8,1.8,2472.764,13.28,0.028,280.1
2022-02-06T08:46:03,42.805,6.029,-0.028,0.009,-0.052,101.0,100.0,100.0,13.4,1505.2,326.8,-0.8,1.9,2472.611,13.29,0.029,287.8
2022-02-06T08:49:03,42.805,6.029,-0.039,0.013,-0.024,99.0,102.0,101.0,13.4,1505.2,329.4,-0.7,1.8,2472.482,13.29,0.041,288.4
2022-02-06T08:52:03,42.805,6.029,-0.053,0.025,-0.008,103.0,100.0,101.0,13.3,1505.2,328.5,-0.7,1.8,2472.365,13.29,0.058,295.3
2022-02-06T08:55:03,42.805,6.029,-0.015,0.0,-0.019,101.0,104.0,100.0,13.4,1505.2,330.6,-0.8,1.8,2472.233,13.29,0.015,270.0
2022-02-06T08:58:03,42.805,6.029,-0.063,0.018,-0.057,101.0,101.0,101.0,13.3,1505.2,326.6,-0.7,1.8,2472.089,13.29,0.065,285.9
2022-02-06T09:04:03,42.805,6.029,-0.029,-0.01,-0.064,101.0,101.0,99.0,13.4,1505.2,329.4,-0.8,1.8,2471.974,13.28,0.03,251.0
2022-02-06T09:07:03,42.805,6.029,-0.024,0.003,-0.026,100.0,100.0,101.0,13.4,1505.2,326.5,-0.7,1.8,2471.952,13.28,0.024,277.1
2022-02-06T09:10:03,42.805,6.029,-0.028,-0.002,-0.038,100.0,100.0,100.0,13.3,1505.2,329.6,-0.7,1.9,2471.862,13.28,0.028,265.9
2022-02-06T09:13:03,42.805,6.029,-0.023,-0.007,-0.044,101.0,100.0,100.0,13.4,1505.2,328.6,-0.7,1.8,2471.687,13.28,0.024,253.1
2022-02-06T09:16:03,42.805,6.029,-0.022,-0.006,-0.059,98.0,101.0,103.0,13.4,1505.2,328.5,-0.7,1.8,2471.462,13.28,0.022,254.7
2022-02-06T09:19:03,42.805,6.029,-0.003,0.0,-0.011,101.0,101.0,100.0,13.4,1505.2,329.4,-0.7,1.8,2471.209,13.28,0.003,270.0
2022-02-06T09:22:03,42.805,6.029,-0.038,0.01,-0.003,101.0,101.0,100.0,13.3,1505.2,325.7,-0.7,1.8,2471.012,13.28,0.039,284.7
2022-02-06T09:25:03,42.805,6.029,-0.031,-0.011,-0.054,99.0,100.0,100.0,13.3,1505.2,329.0,-0.8,1.9,2470.804,13.28,0.032,250.5
2022-02-06T09:28:03,42.805,6.029,-0.051,0.009,-0.045,101.0,99.0,100.0,13.3,1505.2,323.9,-0.8,1.8,2470.507,13.28,0.051,280.0
2022-02-06T09:31:03,42.805,6.029,-0.01,-0.006,-0.046,100.0,101.0,100.0,13.4,1505.2,328.5,-0.8,1.8,2470.279,13.28,0.011,239.0
2022-02-06T09:34:03,42.805,6.029,-0.03,0.006,-0.034,102.0,98.0,101.0,13.3,1505.2,326.0,-0.8,1.8,2470.047,13.28,0.03,281.3
2022-02-06T09:37:03,42.805,6.029,-0.029,0.02,-0.012,100.0,100.0,100.0,13.3,1505.2,326.3,-0.7,1.9,2470.125,13.28,0.035,304.6
2022-02-06T09:40:03,42.805,6.029,-0.001,-0.01,-0.009,102.0,101.0,100.0,13.4,1505.2,329.7,-0.7,1.8,2470.096,13.28,0.01,185.7
2022-02-06T09:43:03,42.805,6.029,-0.034,-0.017,-0.06,100.0,102.0,101.0,13.3,1505.2,326.2,-0.7,1.8,2470.137,13.29,0.038,243.4
2022-02-06T09:46:03,42.805,6.029,-0.02,0.0,0.002,100.0,101.0,100.0,13.3,1505.2,328.5,-0.7,1.8,2470.12,13.29,0.02,270.0
2022-02-06T09:49:03,42.805,6.029,-0.047,0.001,-0.028,99.0,101.0,100.0,13.4,1505.2,327.0,-0.8,1.8,2470.16,13.29,0.047,271.2